Wind_Speed
26 33 30 32 18 27 31 28 27 27 25 27 26 22 21 23 22 22 23 26 28 29 29 27 26 27 29 32 34 34 36 37 39 42 47 51 55 60 64 67 69 66 61 61
24 20 24 21 23 23 27 26 26 23 22 28 30 28 23 23 24 25 27 28 27 27 28 27 28 30 33 35 35 36 37 37 41 46 51 56 60 64 67 69 65 60 61 66
23 22 20 20 24 24 22 21 27 27 21 27 24 26 26 26 24 25 25 26 26 26 27 28 31 33 34 34 36 35 37 40 46 51 56 61 64 68 70 65 59 60 65 70
18 17 20 21 22 25 27 30 26 28 30 31 26 25 28 28 26 23 22 23 25 27 29 32 33 34 34 35 36 39 40 46 51 56 60 64 67 70 63 59 60 65 70 77
22 22 22 21 23 25 25 28 32 30 36 34 27 24 27 25 23 23 23 25 27 29 31 32 33 36 38 40 39 41 46 51 56 60 64 66 69 61 60 61 66 71 78 84
24 23 21 20 19 21 24 26 29 32 36 31 27 29 26 26 25 26 27 27 28 29 31 34 38 37 32 36 41 45 50 55 59 63 66 68 60 60 61 66 72 77 82 88
20 20 23 18 20 20 20 23 26 27 27 28 28 28 28 29 28 28 28 30 32 35 37 39 35 33 38 41 45 50 55 58 61 65 66 60 60 61 66 72 78 82 87 93
21 17 15 19 19 16 17 19 25 28 28 27 28 29 29 28 29 29 28 28 29 30 29 30 33 37 40 45 50 53 57 60 63 63 58 60 60 65 72 77 82 86 91 97
19 12 19 15 22 15 18 21 20 23 26 27 27 27 28 28 30 31 31 31 31 31 33 34 37 41 45 50 53 57 58 62 57 56 58 59 64 71 76 82 87 92 96 101
23 19 21 20 17 16 15 17 22 25 26 28 31 31 32 29 27 28 29 30 31 33 35 38 42 46 49 52 55 58 58 53 55 55 58 63 69 76 81 86 90 95 101 104
19 19 22 23 21 20 18 16 15 14 15 17 19 21 24 26 27 29 31 33 34 37 39 43 45 48 50 54 57 52 51 52 54 57 62 67 74 80 85 90 95 100 104 107
21 21 21 20 17 14 12 13 15 15 16 18 20 21 23 26 28 30 32 35 37 39 41 44 46 50 54 52 47 49 50 53 57 61 66 73 79 83 89 93 97 102 103 96
16 15 13 12 11 12 12 13 15 16 18 20 23 25 26 28 31 33 34 35 38 40 43 47 51 50 45 46 47 49 52 56 60 65 71 78 83 88 90 94 99 101 92 78
13 13 13 12 12 12 13 16 17 20 23 26 28 30 32 34 35 36 36 38 40 43 46 47 45 43 45 46 49 51 55 60 64 70 77 82 87 92 96 99 100 92 74 69
18 17 15 14 15 17 20 22 23 24 27 30 34 36 37 36 35 35 36 39 42 43 43 41 43 44 46 48 51 55 59 63 70 76 82 87 92 94 97 98 92 75 64 66
19 20 21 22 23 25 26 28 29 31 34 37 37 35 33 33 33 37 39 40 41 40 41 42 43 45 47 50 54 58 63 70 76 81 86 90 92 95 97 91 74 64 67 68
25 26 27 29 31 31 32 33 35 37 38 34 32 32 34 36 37 37 39 39 39 40 41 42 44 46 50 54 57 63 70 75 80 85 89 91 93 95 90 74 62 65 67 60
29 29 32 33 34 34 35 36 37 35 33 33 35 36 34 35 37 38 38 40 40 39 42 44 47 51 54 57 63 70 74 79 85 87 89 91 93 88 73 61 64 65 58 53
32 32 33 34 35 35 34 33 33 34 33 31 31 33 33 36 36 38 39 38 40 42 44 47 51 54 58 64 70 75 80 84 86 87 89 92 86 71 60 62 63 59 51 44
27 28 29 30 31 31 30 28 26 28 29 30 32 34 36 37 38 39 40 40 42 44 48 51 53 59 65 70 74 79 83 85 85 88 91 85 71 60 61 63 58 47 44 30
27 26 27 26 25 25 26 26 27 29 30 33 35 37 37 37 40 41 41 42 44 48 51 54 60 65 70 74 78 82 83 85 88 91 83 69 60 61 63 56 44 42 29 23
23 23 23 24 25 26 27 29 30 32 34 36 37 36 38 40 40 41 42 45 48 51 55 60 66 70 73 77 80 82 84 87 90 81 69 60 62 62 52 40 38 30 21 17
24 25 26 27 28 30 31 32 33 34 35 36 37 38 38 39 40 42 44 47 51 56 62 67 70 73 76 79 81 83 87 89 80 67 61 63 60 47 39 37 27 19 15 12
27 28 29 30 31 33 34 34 34 34 35 35 36 37 38 39 41 44 48 53 59 64 68 70 73 75 78 80 82 89 88 77 65 63 64 57 44 40 36 28 18 14 10 7
30 31 32 33 33 32 31 31 32 34 35 36 38 39 39 42 46 50 55 61 64 67 70 72 75 77 79 83 89 88 74 64 65 63 54 47 43 36 28 19 13 7 6 4
24 25 26 27 28 28 29 31 32 34 36 38 40 42 45 49 53 57 61 64 67 69 71 74 76 78 83 89 85 69 63 65 61 56 51 42 34 27 20 15 10 4 3 16
22 23 25 26 28 29 32 34 36 37 39 41 44 48 52 56 59 62 65 66 68 70 72 74 78 84 89 82 66 63 64 61 57 49 41 34 26 19 18 12 4 4 17 22
Wind_Direction
160 187 197 194 209 200 185 198 205 218 226 238 246 255 256 260 266 266 265 266 266 265 265 268 268 274 279 282 287 290 294 296 300 303 304 308 310 313 314 315 314 313 315 317
181 155 181 194 189 191 195 215 217 227 240 247 248 249 254 264 272 273 272 269 268 269 269 270 275 278 282 286 290 292 294 298 301 304 308 309 311 313 314 313 313 314 316 319
189 211 209 209 212 217 224 226 227 228 246 246 248 254 255 259 266 268 269 269 269 269 270 272 275 279 284 286 289 290 294 300 302 306 309 310 312 313 312 313 312 314 318 320
211 209 211 220 222 222 224 228 227 230 243 255 251 260 259 261 271 273 268 266 267 269 271 274 279 283 285 287 288 295 299 300 305 307 309 311 312 312 311 311 312 315 316 317
226 226 231 227 231 231 230 233 233 236 242 247 261 261 263 269 264 263 265 266 267 270 275 280 283 283 282 284 294 297 299 303 305 308 310 311 311 310 310 311 313 315 316 319
222 224 230 234 236 232 230 234 233 240 245 253 260 262 261 258 257 260 264 270 275 278 281 285 285 290 291 295 295 297 301 304 306 309 309 309 309 310 309 312 316 318 319 320
218 228 232 231 238 234 231 228 238 244 248 250 255 255 250 256 262 266 270 275 280 282 283 281 283 289 291 293 296 300 302 305 307 308 308 309 309 308 311 316 318 318 318 320
236 231 218 212 228 239 237 231 232 238 240 242 245 249 254 259 265 271 276 283 289 293 288 286 287 288 291 295 298 301 304 306 307 308 308 307 308 312 315 316 317 319 320 321
230 234 230 268 238 239 244 238 239 241 247 249 251 255 260 265 271 276 282 284 284 284 285 287 288 293 295 296 299 302 305 307 307 306 307 309 312 314 315 317 319 320 320 321
232 238 237 238 244 240 247 243 243 247 251 255 259 264 269 275 276 277 278 281 282 285 288 290 292 293 295 299 303 306 306 305 306 307 310 312 314 317 319 320 320 320 321 322
233 236 229 240 245 235 248 246 241 246 255 261 265 268 271 276 280 282 284 285 285 286 288 291 295 299 301 303 305 304 304 306 308 310 312 314 317 319 320 321 321 321 323 324
235 228 234 236 234 230 228 234 241 253 262 267 272 276 279 280 282 284 286 287 289 292 295 298 301 302 303 304 303 305 307 310 311 311 313 316 319 321 321 320 322 324 325 324
221 217 198 209 213 221 230 245 254 264 279 290 293 294 293 294 294 295 295 297 297 298 299 300 301 303 303 304 306 308 310 310 310 313 316 319 320 320 319 321 323 325 324 323
205 209 217 225 237 252 262 268 279 285 288 290 293 295 295 297 298 298 298 297 296 298 300 303 304 304 304 305 308 308 309 311 314 317 318 319 319 320 321 321 323 325 323 324
217 222 231 243 258 269 275 276 276 281 288 294 296 295 295 295 294 294 295 298 301 303 304 304 304 302 304 306 307 309 312 316 317 319 319 320 320 320 322 324 326 325 325 327
236 239 247 257 265 274 279 279 280 285 290 295 295 293 292 293 295 297 300 301 303 303 303 302 301 302 305 307 309 314 317 319 319 320 320 320 320 321 324 326 325 326 327 329
255 259 262 266 271 274 275 278 283 288 292 291 291 293 295 296 297 298 299 301 301 301 299 300 301 304 306 310 314 318 319 319 320 320 320 319 321 323 326 325 325 328 329 329
266 266 267 270 273 275 277 280 285 286 286 288 291 291 291 293 295 298 300 299 299 299 300 301 305 308 311 314 317 317 318 320 320 319 319 320 323 325 324 325 327 329 329 330
266 268 270 271 272 275 278 279 280 283 284 284 285 289 291 295 297 296 297 298 298 298 302 306 309 312 316 317 319 319 319 319 319 318 320 323 325 324 325 327 328 329 329 332
266 268 271 273 274 275 276 277 277 280 284 288 290 293 294 293 294 296 296 296 299 304 307 309 312 315 317 318 318 318 319 318 318 319 322 324 323 324 326 327 327 328 330 334
264 267 267 266 267 269 271 275 281 285 288 289 290 290 291 293 294 294 296 300 303 306 308 310 313 315 316 317 318 318 317 317 319 321 323 322 323 325 325 325 327 328 332 336
264 265 267 269 271 274 276 279 282 285 286 286 287 288 291 292 295 298 300 303 305 307 309 312 313 314 315 316 316 317 317 317 320 323 322 322 324 324 324 327 327 329 333 338
265 267 268 270 272 274 276 280 282 284 284 285 289 291 294 297 300 302 303 304 306 308 311 313 313 314 315 316 316 316 317 320 322 321 321 323 323 324 326 327 326 329 334 336
263 265 267 270 273 276 280 281 281 283 287 290 293 296 299 301 301 302 303 306 308 309 311 312 313 314 315 315 316 317 320 321 321 321 322 323 324 323 324 324 324 330 331 339
262 265 268 271 273 273 276 281 285 289 292 295 298 301 302 301 302 303 305 306 307 308 310 311 312 313 314 316 317 320 321 320 321 321 322 323 321 320 321 320 321 323 321 125
267 270 273 276 279 282 285 287 291 295 299 300 300 301 301 301 302 303 304 305 306 308 311 311 312 313 315 317 319 320 320 320 321 322 322 321 320 319 318 319 317 296 169 144
273 277 280 284 286 289 292 294 296 297 297 298 298 298 299 300 301 302 304 306 308 310 310 310 311 314 316 319 319 320 321 321 322 323 320 318 317 317 317 311 258 199 150 148
Height
5607 5615 5621 5628 5635 5642 5649 5657 5663 5666 5671 5674 5677 5683 5686 5686 5690 5691 5693 5694 5695 5696 5695 5695 5695 5695 5694 5692 5690 5687 5684 5680 5676 5671 5666 5659 5652 5644 5636 5627 5618 5608 5599 5591
5610 5617 5624 5631 5638 5646 5652 5655 5660 5664 5668 5670 5674 5679 5681 5683 5684 5685 5686 5686 5687 5687 5688 5689 5689 5688 5686 5684 5681 5679 5675 5671 5666 5661 5655 5647 5640 5631 5622 5613 5604 5595 5585 5575
5615 5621 5627 5634 5638 5644 5648 5652 5659 5663 5665 5664 5670 5672 5677 5679 5679 5680 5681 5681 5681 5682 5682 5682 5682 5680 5679 5676 5673 5669 5665 5661 5656 5650 5643 5635 5627 5618 5609 5599 5591 5581 5571 5560
5618 5622 5627 5631 5635 5641 5646 5648 5654 5658 5658 5659 5667 5668 5670 5672 5674 5675 5675 5675 5675 5675 5676 5675 5674 5673 5670 5667 5663 5660 5656 5651 5645 5638 5631 5622 5614 5605 5596 5587 5577 5568 5557 5545
5616 5621 5625 5630 5634 5638 5643 5647 5650 5653 5652 5657 5662 5663 5664 5668 5669 5668 5669 5669 5669 5669 5668 5667 5666 5664 5661 5658 5654 5651 5646 5640 5634 5626 5618 5609 5601 5592 5583 5575 5564 5554 5542 5529
5615 5617 5622 5626 5630 5635 5639 5643 5646 5648 5649 5654 5654 5657 5660 5660 5662 5662 5663 5663 5662 5662 5661 5659 5657 5655 5652 5649 5645 5640 5635 5628 5621 5613 5605 5597 5587 5580 5571 5561 5551 5538 5525 5510
5611 5615 5619 5624 5626 5630 5635 5641 5639 5641 5644 5646 5650 5652 5653 5653 5655 5656 5656 5656 5655 5654 5652 5649 5647 5645 5642 5639 5634 5630 5623 5616 5609 5601 5592 5583 5575 5568 5559 5548 5536 5523 5509 5493
5612 5615 5619 5621 5623 5627 5630 5632 5634 5635 5638 5640 5643 5645 5646 5648 5648 5649 5649 5648 5647 5645 5643 5641 5639 5636 5633 5629 5624 5618 5611 5604 5596 5588 5580 5573 5565 5555 5543 5531 5519 5505 5490 5475
5611 5615 5616 5618 5620 5623 5625 5627 5630 5633 5634 5636 5638 5639 5641 5642 5642 5642 5641 5640 5639 5637 5635 5633 5629 5627 5622 5617 5612 5605 5598 5591 5584 5577 5569 5561 5551 5540 5528 5514 5500 5486 5470 5454
5606 5611 5612 5614 5617 5619 5621 5623 5625 5628 5630 5631 5632 5633 5634 5634 5634 5634 5633 5632 5631 5629 5627 5623 5620 5616 5611 5606 5600 5593 5586 5580 5573 5566 5557 5547 5536 5523 5510 5495 5482 5466 5449 5433
5602 5606 5607 5610 5612 5615 5617 5619 5621 5623 5624 5626 5626 5627 5627 5627 5627 5626 5625 5623 5622 5620 5617 5613 5609 5604 5599 5594 5588 5581 5575 5569 5562 5553 5545 5535 5522 5508 5494 5476 5459 5443 5426 5409
5598 5600 5604 5606 5608 5611 5613 5615 5617 5618 5620 5620 5621 5621 5621 5620 5619 5618 5617 5614 5612 5609 5606 5602 5598 5593 5587 5582 5576 5570 5564 5557 5549 5540 5531 5520 5509 5497 5477 5460 5443 5424 5406 5387
5594 5597 5600 5603 5605 5608 5610 5612 5613 5614 5614 5614 5614 5614 5613 5612 5611 5609 5607 5605 5602 5599 5595 5591 5587 5582 5576 5571 5566 5559 5553 5545 5536 5526 5516 5504 5491 5478 5467 5451 5428 5410 5392 5375
5592 5595 5598 5600 5603 5604 5606 5607 5608 5608 5608 5608 5607 5606 5605 5603 5602 5600 5598 5595 5593 5590 5586 5581 5576 5571 5566 5561 5555 5547 5540 5531 5522 5512 5500 5487 5473 5458 5443 5428 5416 5401 5382 5366
5589 5592 5595 5597 5599 5600 5601 5602 5602 5602 5601 5601 5600 5599 5597 5595 5593 5591 5589 5587 5583 5579 5575 5570 5566 5561 5556 5549 5542 5535 5527 5518 5508 5495 5483 5469 5455 5440 5425 5409 5394 5380 5370 5357
5586 5588 5590 5592 5593 5594 5594 5594 5594 5594 5594 5593 5591 5589 5588 5586 5584 5582 5579 5576 5573 5569 5564 5560 5556 5550 5543 5537 5530 5522 5513 5503 5492 5481 5467 5452 5437 5423 5408 5394 5379 5367 5355 5343
5580 5583 5584 5585 5586 5587 5587 5587 5586 5586 5585 5584 5582 5581 5580 5578 5575 5572 5569 5566 5563 5558 5554 5549 5544 5538 5532 5525 5517 5509 5499 5488 5476 5463 5449 5435 5421 5407 5392 5379 5368 5357 5344 5330
5574 5576 5576 5577 5578 5578 5578 5578 5578 5577 5576 5575 5574 5573 5571 5568 5565 5562 5559 5556 5552 5548 5543 5538 5532 5526 5520 5512 5503 5494 5484 5472 5459 5446 5432 5419 5405 5390 5378 5367 5356 5345 5334 5324
5566 5567 5568 5568 5568 5569 5569 5568 5568 5568 5567 5566 5565 5563 5561 5558 5556 5553 5549 5546 5541 5537 5532 5527 5521 5514 5507 5499 5490 5479 5468 5455 5442 5429 5416 5403 5389 5376 5366 5356 5345 5335 5325 5317
5557 5558 5559 5559 5559 5559 5559 5559 5559 5559 5559 5557 5556 5553 5551 5549 5546 5543 5539 5535 5531 5526 5521 5515 5508 5501 5494 5484 5474 5463 5451 5439 5426 5413 5400 5387 5375 5365 5356 5345 5336 5327 5319 5313
5548 5549 5550 5550 5551 5551 5551 5551 5550 5550 5549 5548 5546 5544 5542 5539 5536 5532 5529 5524 5520 5515 5509 5503 5496 5488 5479 5469 5457 5446 5434 5421 5408 5396 5384 5372 5363 5354 5345 5335 5327 5320 5314 5310
5540 5541 5542 5542 5542 5542 5542 5542 5542 5541 5540 5538 5536 5534 5531 5529 5525 5521 5518 5514 5509 5503 5498 5491 5482 5473 5462 5452 5441 5428 5416 5404 5392 5379 5368 5359 5351 5342 5334 5327 5320 5315 5311 5307
5532 5533 5533 5534 5534 5534 5534 5534 5533 5532 5530 5528 5526 5524 5521 5518 5515 5511 5507 5503 5497 5491 5484 5475 5466 5456 5446 5434 5423 5412 5400 5387 5375 5365 5356 5348 5339 5331 5325 5319 5314 5311 5308 5305
5523 5524 5524 5525 5525 5525 5525 5524 5523 5522 5520 5518 5516 5514 5511 5508 5504 5500 5495 5490 5483 5476 5468 5459 5449 5439 5429 5418 5407 5395 5382 5370 5360 5352 5343 5334 5327 5322 5317 5313 5310 5307 5305 5303
5515 5516 5517 5516 5516 5515 5515 5514 5513 5512 5511 5508 5506 5504 5501 5497 5493 5488 5482 5476 5469 5460 5452 5443 5433 5423 5412 5401 5389 5377 5365 5355 5347 5339 5330 5324 5318 5312 5309 5306 5305 5304 5302 5302
5507 5508 5507 5507 5507 5506 5506 5505 5504 5502 5500 5498 5496 5493 5489 5485 5481 5475 5468 5461 5453 5445 5436 5426 5416 5406 5396 5384 5372 5360 5352 5343 5334 5325 5318 5312 5307 5304 5302 5300 5300 5300 5300 5302
5499 5500 5499 5499 5498 5497 5496 5495 5494 5492 5490 5488 5485 5481 5477 5472 5467 5460 5454 5446 5438 5429 5420 5410 5400 5390 5379 5367 5356 5347 5338 5329 5320 5313 5306 5302 5298 5297 5296 5295 5296 5297 5299 5303